DW0360 Weather Reports


time (UTC)temp
F
wind
direction
speed
knots
gust
knots
rain 1hr
in
rain 24hr
in
rain mn
in
humidity
%
barometer
mb
20220627200104 92 15 2.6 11.3 0.00 0.00 0.00 54 1017.8
20220627194554 92 97 2.6 7.8 0.00 0.00 0.00 56 1017.8
20220627193051 92 36 3.5 9.6 0.00 0.00 0.00 54 1018.0
20220627191549 91 127 0.9 7.8 0.00 0.00 0.00 55 1018.1
20220627190049 91 74 1.7 8.7 0.00 0.00 0.00 55 1018.3
20220627184548 91 24 2.6 7.8 0.00 0.00 0.00 54 1018.6
20220627183046 91 355 2.6 7.8 0.00 0.00 0.00 55 1018.8
20220627181543 90 82 1.7 4.3 0.00 0.00 0.00 58 1019.0
20220627180042 91 13 1.7 7.0 0.00 0.00 0.00 54 1019.2
20220627174538 90 35 0.9 5.2 0.00 0.00 0.00 58 1019.3
20220627173036 90 43 1.7 3.5 0.00 0.00 0.00 58 1019.4
20220627171532 89 18 1.7 5.2 0.00 0.00 0.00 59 1019.6
20220627170028 88 17 1.7 7.0 0.00 0.00 0.00 62 1019.6
20220627164532 87 71 3.5 7.8 0.00 0.00 0.00 60 1019.6
20220627163023 86 355 2.6 10.4 0.00 0.00 0.00 60 1019.7
20220627161520 86 57 2.6 9.6 0.00 0.00 0.00 60 1019.7
20220627160016 85 19 4.3 9.6 0.00 0.00 0.00 61 1019.7
20220627154516 84 44 3.5 13.0 0.00 0.00 0.00 62 1019.7
20220627153112 84 61 2.6 9.6 0.00 0.00 0.00 62 1019.8
20220627151506 82 42 2.6 7.8 0.00 0.00 0.00 63 1019.8
20220627150003 82 33 2.6 12.2 0.00 0.00 0.00 65 1019.8
20220627144602 81 11 2.6 7.8 0.00 0.00 0.00 65 1019.9
20220627143101 80 355 2.6 7.8 0.00 0.00 0.00 65 1020.0
20220627141557 79 46 1.7 7.8 0.00 0.00 0.00 65 1020.0
20220627140105 77 61 0.9 5.2 0.00 0.00 0.00 65 1019.8
20220627134556 76 54 0.9 5.2 0.00 0.00 0.00 66 1019.8
20220627133054 75 63 1.7 4.3 0.00 0.00 0.00 66 1019.7
20220627131557 74 36 0.9 3.5 0.00 0.00 0.00 65 1019.7
20220627130052 74 35 1.7 7.0 0.00 0.00 0.00 65 1019.5
20220627124549 73 67 1.7 6.1 0.00 0.00 0.00 64 1019.5
20220627123048 72 25 0.9 4.3 0.00 0.00 0.00 65 1019.2
20220627121544 72 77 0.9 4.3 0.00 0.00 0.00 65 1019.1
20220627120044 72 5 0.9 5.2 0.00 0.00 0.00 64 1019.1
20220627114540 72 355 0.9 7.0 0.00 0.00 0.00 63 1018.7
20220627113043 72 24 0.9 3.5 0.00 0.00 0.00 63 1018.7
20220627111544 72 15 1.7 7.8 0.00 0.00 0.00 63 1018.7
20220627110037 72 12 0.9 3.5 0.00 0.00 0.00 62 1018.6
20220627104536 73 13 0.9 4.3 0.00 0.00 0.00 62 1018.4
20220627103044 73 39 0.9 4.3 0.00 0.00 0.00 61 1018.4
20220627101535 73 27 0.9 3.5 0.00 0.00 0.00 61 1018.4
20220627100043 73 15 0.9 7.0 0.00 0.00 0.00 60 1018.3
20220627094535 73 28 0.9 7.0 0.00 0.00 0.00 60 1018.3
20220627093031 74 5 0.9 6.1 0.00 0.00 0.00 58 1018.6
20220627091528 74 51 0.9 3.5 0.00 0.00 0.00 58 1018.5
20220627090026 75 21 0.9 5.2 0.00 0.00 0.00 57 1018.4
20220627084524 75 5 0.9 3.5 0.00 0.00 0.00 56 1018.2
20220627083023 75 24 0.9 7.0 0.00 0.00 0.00 56 1018.1
20220627081519 76 5 0.0 2.6 0.00 0.00 0.00 57 1018.1
20220627080017 77 5 2.6 10.4 0.00 0.00 0.00 57 1018.0
20220627074515 77 21 0.9 4.3 0.00 0.00 0.00 60 1018.1
20220627073020 78 45 0.9 5.2 0.00 0.00 0.00 63 1017.9
20220627071510 78 9 0.9 3.5 0.00 0.00 0.00 65 1018.1
20220627070009 78 11 0.9 4.3 0.00 0.00 0.00 65 1018.1
20220627064507 79 20 0.9 2.6 0.00 0.00 0.00 66 1018.2
20220627063006 79 80 0.9 3.5 0.00 0.00 0.00 65 1018.1
20220627061504 80 21 0.9 5.2 0.00 0.00 0.00 65 1018.3
20220627060002 80 32 1.7 7.8 0.00 0.00 0.00 65 1018.3
20220627054601 80 9 1.7 8.7 0.00 0.00 0.00 65 1018.1
20220627053059 81 64 1.7 5.2 0.00 0.00 0.00 64 1018.1
20220627051556 81 360 2.6 7.8 0.00 0.00 0.00 64 1018.0
20220627050054 81 93 0.9 5.2 0.00 0.00 0.00 63 1018.0
20220627044553 82 5 2.6 7.8 0.00 0.00 0.00 63 1017.9
20220627043054 83 18 1.7 7.8 0.00 0.00 0.00 64 1017.8
20220627041551 83 254 1.7 7.8 0.00 0.00 0.00 63 1017.7
20220627040047 83 32 2.6 11.3 0.00 0.00 0.00 62 1017.3
20220627034545 84 18 2.6 9.6 0.00 0.00 0.00 61 1017.2
20220627033044 85 29 2.6 5.2 0.00 0.00 0.00 62 1017.1
20220627031543 85 200 1.7 5.2 0.00 0.00 0.00 62 1016.9
20220627030043 86 9 4.3 12.2 0.00 0.00 0.00 61 1016.7
20220627024545 86 26 0.9 8.7 0.00 0.00 0.00 62 1016.5
20220627023041 87 5 1.7 7.8 0.00 0.00 0.00 61 1016.5
20220627021542 88 82 1.7 8.7 0.00 0.00 0.00 61 1016.1
20220627020040 88 13 1.7 8.7 0.00 0.00 0.00 60 1015.9
20220627014539 89 13 1.7 8.7 0.00 0.00 0.00 59 1015.5
20220627013039 91 349 1.7 7.0 0.00 0.00 0.00 57 1015.1
20220627011546 92 29 0.9 7.0 0.00 0.00 0.00 55 1014.7
20220627010038 93 15 2.6 5.2 0.00 0.00 0.00 52 1014.5
20220627004537 94 35 2.6 8.7 0.00 0.00 0.00 50 1014.4
20220627003046 95 281 2.6 10.4 0.00 0.00 0.00 47 1014.4
20220627001535 95 55 1.7 9.6 0.00 0.00 0.00 46 1014.2
20220627000035 95 32 0.9 5.2 0.00 0.00 0.00 46 1014.1
20220626234534 96 332 1.7 4.3 0.00 0.00 0.00 45 1013.8
20220626233035 96 347 0.9 3.5 0.00 0.00 0.00 46 1013.7
20220626231635 96 74 0.9 3.5 0.00 0.00 0.00 45 1013.5
20220626230037 97 34 1.7 4.3 0.00 0.00 0.00 43 1013.6
20220626224539 99 30 0.9 3.5 0.00 0.00 0.00 37 1013.6
20220626223035 100 46 0.9 7.8 0.00 0.00 0.00 35 1013.4
20220626221531 101 195 0.9 7.0 0.00 0.00 0.00 34 1013.7
20220626220030 102 27 4.3 10.4 0.00 0.00 0.00 33 1013.7
20220626214533 103 67 2.6 5.2 0.00 0.00 0.00 32 1013.7
20220626213030 103 32 0.9 4.3 0.00 0.00 0.00 33 1014.0
20220626211527 103 19 1.7 4.3 0.00 0.00 0.00 30 1014.1
20220626210026 102 94 2.6 4.3 0.00 0.00 0.00 31 1014.2
20220626204525 102 19 1.7 4.3 0.00 0.00 0.00 31 1014.4
20220626203025 100 46 0.9 7.8 0.00 0.00 0.00 33 1014.5
20220626201523 101 88 0.9 4.3 0.00 0.00 0.00 33 1014.7